Year,Month,Day,Hour,Minute,Value (Times are PST for temperature in C)
2021,06,25,00,00,20.30
2021,06,25,00,01,20.30
2021,06,25,00,02,20.30
2021,06,25,00,03,20.30
2021,06,25,00,04,20.30
2021,06,25,00,05,20.30
2021,06,25,00,06,20.30
2021,06,25,00,07,20.30
2021,06,25,00,08,20.30
2021,06,25,00,09,20.30
2021,06,25,00,10,20.30
2021,06,25,00,11,20.20
2021,06,25,00,12,20.20
2021,06,25,00,13,20.20
2021,06,25,00,14,20.20
2021,06,25,00,15,20.20
2021,06,25,00,16,20.10
2021,06,25,00,17,20.10
2021,06,25,00,18,20.10
2021,06,25,00,19,20.10
2021,06,25,00,20,20.00
2021,06,25,00,21,20.00
2021,06,25,00,22,19.90
2021,06,25,00,23,19.90
2021,06,25,00,24,19.90
2021,06,25,00,25,19.80
2021,06,25,00,26,19.80
2021,06,25,00,27,19.80
2021,06,25,00,28,19.80
2021,06,25,00,29,19.80
2021,06,25,00,30,19.80
2021,06,25,00,31,19.80
2021,06,25,00,32,19.80
2021,06,25,00,33,19.80
2021,06,25,00,34,19.70
2021,06,25,00,35,19.70
2021,06,25,00,36,19.70
2021,06,25,00,37,19.60
2021,06,25,00,38,19.60
2021,06,25,00,39,19.60
2021,06,25,00,40,19.60
2021,06,25,00,41,19.60
2021,06,25,00,42,19.60
2021,06,25,00,43,19.60
2021,06,25,00,44,19.60
2021,06,25,00,45,19.60
2021,06,25,00,46,19.60
2021,06,25,00,47,19.70
2021,06,25,00,48,19.70
2021,06,25,00,49,19.70
2021,06,25,00,50,19.70
2021,06,25,00,51,19.70
2021,06,25,00,52,19.70
2021,06,25,00,53,19.70
2021,06,25,00,54,19.70
2021,06,25,00,55,19.70
2021,06,25,00,56,19.70
2021,06,25,00,57,19.70
2021,06,25,00,58,19.70
2021,06,25,00,59,19.70
2021,06,25,01,00,19.70
2021,06,25,01,01,19.70
2021,06,25,01,02,19.60
2021,06,25,01,03,19.60
2021,06,25,01,04,19.60
2021,06,25,01,05,19.50
2021,06,25,01,06,19.50
2021,06,25,01,07,19.50
2021,06,25,01,08,19.40
2021,06,25,01,09,19.40
2021,06,25,01,10,19.40
2021,06,25,01,11,19.40
2021,06,25,01,12,19.40
2021,06,25,01,13,19.30
2021,06,25,01,14,19.30
2021,06,25,01,15,19.30
2021,06,25,01,16,19.30
2021,06,25,01,17,19.30
2021,06,25,01,18,19.30
2021,06,25,01,19,19.30
2021,06,25,01,20,19.20
2021,06,25,01,21,19.20
2021,06,25,01,22,19.20
2021,06,25,01,23,19.20
2021,06,25,01,24,19.20
2021,06,25,01,25,19.20
2021,06,25,01,26,19.20
2021,06,25,01,27,19.20
2021,06,25,01,28,19.10
2021,06,25,01,29,19.10
2021,06,25,01,30,19.10
2021,06,25,01,31,19.10
2021,06,25,01,32,19.10
2021,06,25,01,33,19.10
2021,06,25,01,34,19.00
2021,06,25,01,35,19.00
2021,06,25,01,36,19.00
2021,06,25,01,37,19.00
2021,06,25,01,38,18.90
2021,06,25,01,39,18.90
2021,06,25,01,40,18.90
2021,06,25,01,41,18.90
2021,06,25,01,42,18.90
2021,06,25,01,43,18.90
2021,06,25,01,44,18.90
2021,06,25,01,45,18.90
2021,06,25,01,46,18.90
2021,06,25,01,47,18.80
2021,06,25,01,48,18.80
2021,06,25,01,49,18.80
2021,06,25,01,50,18.80
2021,06,25,01,51,18.80
2021,06,25,01,52,18.80
2021,06,25,01,53,18.80
2021,06,25,01,54,18.80
2021,06,25,01,55,18.80
2021,06,25,01,56,18.80
2021,06,25,01,57,18.80
2021,06,25,01,58,18.80
2021,06,25,01,59,18.80
2021,06,25,02,00,18.80
2021,06,25,02,01,18.80
2021,06,25,02,02,18.80
2021,06,25,02,03,18.80
2021,06,25,02,04,18.80
2021,06,25,02,05,18.80
2021,06,25,02,06,18.80
2021,06,25,02,07,18.80
2021,06,25,02,08,18.80
2021,06,25,02,09,18.80
2021,06,25,02,10,18.80
2021,06,25,02,11,18.80
2021,06,25,02,12,18.80
2021,06,25,02,13,18.80
2021,06,25,02,14,18.80
2021,06,25,02,15,18.80
2021,06,25,02,16,18.80
2021,06,25,02,17,18.70
2021,06,25,02,18,18.70
2021,06,25,02,19,18.70
2021,06,25,02,20,18.70
2021,06,25,02,21,18.70
2021,06,25,02,22,18.70
2021,06,25,02,23,18.70
2021,06,25,02,24,18.70
2021,06,25,02,25,18.60
2021,06,25,02,26,18.60
2021,06,25,02,27,18.60
2021,06,25,02,28,18.60
2021,06,25,02,29,18.60
2021,06,25,02,30,18.60
2021,06,25,02,31,18.60
2021,06,25,02,32,18.60
2021,06,25,02,33,18.60
2021,06,25,02,34,18.60
2021,06,25,02,35,18.60
2021,06,25,02,36,18.50
2021,06,25,02,37,18.50
2021,06,25,02,38,18.50
2021,06,25,02,39,18.50
2021,06,25,02,40,18.50
2021,06,25,02,41,18.50
2021,06,25,02,42,18.50
2021,06,25,02,43,18.50
2021,06,25,02,44,18.50
2021,06,25,02,45,18.50
2021,06,25,02,46,18.50
2021,06,25,02,47,18.40
2021,06,25,02,48,18.40
2021,06,25,02,49,18.40
2021,06,25,02,50,18.40
2021,06,25,02,51,18.40
2021,06,25,02,52,18.40
2021,06,25,02,53,18.40
2021,06,25,02,54,18.40
2021,06,25,02,55,18.30
2021,06,25,02,56,18.30
2021,06,25,02,57,18.30
2021,06,25,02,58,18.30
2021,06,25,02,59,18.30
2021,06,25,03,00,18.30
2021,06,25,03,01,18.30
2021,06,25,03,02,18.30
2021,06,25,03,03,18.30
2021,06,25,03,04,18.20
2021,06,25,03,05,18.20
2021,06,25,03,06,18.20
2021,06,25,03,07,18.20
2021,06,25,03,08,18.20
2021,06,25,03,09,18.20
2021,06,25,03,10,18.20
2021,06,25,03,11,18.20
2021,06,25,03,12,18.20
2021,06,25,03,13,18.20
2021,06,25,03,14,18.20
2021,06,25,03,15,18.10
2021,06,25,03,16,18.10
2021,06,25,03,17,18.10
2021,06,25,03,18,18.10
2021,06,25,03,19,18.10
2021,06,25,03,20,18.10
2021,06,25,03,21,18.10
2021,06,25,03,22,18.10
2021,06,25,03,23,18.10
2021,06,25,03,24,18.10
2021,06,25,03,25,18.10
2021,06,25,03,26,18.10
2021,06,25,03,27,18.10
2021,06,25,03,28,18.10
2021,06,25,03,29,18.10
2021,06,25,03,30,18.10
2021,06,25,03,31,18.10
2021,06,25,03,32,18.10
2021,06,25,03,33,18.10
2021,06,25,03,34,18.00
2021,06,25,03,35,18.00
2021,06,25,03,36,18.00
2021,06,25,03,37,18.00
2021,06,25,03,38,17.90
2021,06,25,03,39,17.90
2021,06,25,03,40,17.90
2021,06,25,03,41,18.00
2021,06,25,03,42,18.00
2021,06,25,03,43,18.10
2021,06,25,03,44,18.10
2021,06,25,03,45,18.10
2021,06,25,03,46,18.10
2021,06,25,03,47,18.10
2021,06,25,03,48,18.20
2021,06,25,03,49,18.10
2021,06,25,03,50,18.10
2021,06,25,03,51,18.10
2021,06,25,03,52,18.10
2021,06,25,03,53,18.10
2021,06,25,03,54,18.10
2021,06,25,03,55,18.10
2021,06,25,03,56,18.10
2021,06,25,03,57,18.10
2021,06,25,03,58,18.20
2021,06,25,03,59,18.20
2021,06,25,04,00,18.20
2021,06,25,04,01,18.10
2021,06,25,04,02,18.10
2021,06,25,04,03,18.10
2021,06,25,04,04,18.10
2021,06,25,04,05,18.10
2021,06,25,04,06,18.10
2021,06,25,04,07,18.00
2021,06,25,04,08,18.00
2021,06,25,04,09,18.00
2021,06,25,04,10,17.90
2021,06,25,04,11,17.90
2021,06,25,04,12,17.90
2021,06,25,04,13,17.80
2021,06,25,04,14,17.80
2021,06,25,04,15,17.80
2021,06,25,04,16,17.80
2021,06,25,04,17,17.70
2021,06,25,04,18,17.70
2021,06,25,04,19,17.70
2021,06,25,04,20,17.70
2021,06,25,04,21,17.70
2021,06,25,04,22,17.60
2021,06,25,04,23,17.60
2021,06,25,04,24,17.60
2021,06,25,04,25,17.60
2021,06,25,04,26,17.60
2021,06,25,04,27,17.50
2021,06,25,04,28,17.50
2021,06,25,04,29,17.40
2021,06,25,04,30,17.40
2021,06,25,04,31,17.40
2021,06,25,04,32,17.40
2021,06,25,04,33,17.40
2021,06,25,04,34,17.40
2021,06,25,04,35,17.40
2021,06,25,04,36,17.30
2021,06,25,04,37,17.30
2021,06,25,04,38,17.30
2021,06,25,04,39,17.30
2021,06,25,04,40,17.30
2021,06,25,04,41,17.30
2021,06,25,04,42,17.30
2021,06,25,04,43,17.30
2021,06,25,04,44,17.30
2021,06,25,04,45,17.30
2021,06,25,04,46,17.30
2021,06,25,04,47,17.30
2021,06,25,04,48,17.30
2021,06,25,04,49,17.30
2021,06,25,04,50,17.30
2021,06,25,04,51,17.30
2021,06,25,04,52,17.30
2021,06,25,04,53,17.30
2021,06,25,04,54,17.30
2021,06,25,04,55,17.20
2021,06,25,04,56,17.20
2021,06,25,04,57,17.20
2021,06,25,04,58,17.20
2021,06,25,04,59,17.20
2021,06,25,05,00,17.20
2021,06,25,05,01,17.20
2021,06,25,05,02,17.10
2021,06,25,05,03,17.10
2021,06,25,05,04,17.10
2021,06,25,05,05,17.10
2021,06,25,05,06,17.10
2021,06,25,05,07,17.00
2021,06,25,05,08,17.00
2021,06,25,05,09,17.00
2021,06,25,05,10,17.00
2021,06,25,05,11,17.00
2021,06,25,05,12,16.90
2021,06,25,05,13,16.90
2021,06,25,05,14,16.90
2021,06,25,05,15,16.90
2021,06,25,05,16,16.90
2021,06,25,05,17,16.90
2021,06,25,05,18,16.90
2021,06,25,05,19,16.90
2021,06,25,05,20,16.90
2021,06,25,05,21,16.80
2021,06,25,05,22,16.80
2021,06,25,05,23,16.80
2021,06,25,05,24,16.80
2021,06,25,05,25,16.80
2021,06,25,05,26,16.80
2021,06,25,05,27,16.80
2021,06,25,05,28,16.80
2021,06,25,05,29,16.80
2021,06,25,05,30,16.90
2021,06,25,05,31,16.90
2021,06,25,05,32,16.90
2021,06,25,05,33,16.90
2021,06,25,05,34,16.90
2021,06,25,05,35,16.90
2021,06,25,05,36,16.90
2021,06,25,05,37,16.90
2021,06,25,05,38,16.80
2021,06,25,05,39,16.80
2021,06,25,05,40,16.80
2021,06,25,05,41,16.70
2021,06,25,05,42,16.70
2021,06,25,05,43,16.70
2021,06,25,05,44,16.60
2021,06,25,05,45,16.60
2021,06,25,05,46,16.60
2021,06,25,05,47,16.60
2021,06,25,05,48,16.60
2021,06,25,05,49,16.60
2021,06,25,05,50,16.60
2021,06,25,05,51,16.60
2021,06,25,05,52,16.50
2021,06,25,05,53,16.50
2021,06,25,05,54,16.40
2021,06,25,05,55,16.40
2021,06,25,05,56,16.40
2021,06,25,05,57,16.40
2021,06,25,05,58,16.30
2021,06,25,05,59,16.30
2021,06,25,06,00,16.30
2021,06,25,06,01,16.30
2021,06,25,06,02,16.30
2021,06,25,06,03,16.30
2021,06,25,06,04,16.30
2021,06,25,06,05,16.30
2021,06,25,06,06,16.40
2021,06,25,06,07,16.40
2021,06,25,06,08,16.40
2021,06,25,06,09,16.40
2021,06,25,06,10,16.40
2021,06,25,06,11,16.40
2021,06,25,06,12,16.40
2021,06,25,06,13,16.40
2021,06,25,06,14,16.50
2021,06,25,06,15,16.50
2021,06,25,06,16,16.50
2021,06,25,06,17,16.50
2021,06,25,06,18,16.50
2021,06,25,06,19,16.50
2021,06,25,06,20,16.50
2021,06,25,06,21,16.60
2021,06,25,06,22,16.60
2021,06,25,06,23,16.60
2021,06,25,06,24,16.60
2021,06,25,06,25,16.60
2021,06,25,06,26,16.60
2021,06,25,06,27,16.60
2021,06,25,06,28,16.60
2021,06,25,06,29,16.70
2021,06,25,06,30,16.70
2021,06,25,06,31,16.70
2021,06,25,06,32,16.70
2021,06,25,06,33,16.70
2021,06,25,06,34,16.70
2021,06,25,06,35,16.80
2021,06,25,06,36,16.80
2021,06,25,06,37,16.90
2021,06,25,06,38,16.90
2021,06,25,06,39,16.90
2021,06,25,06,40,17.00
2021,06,25,06,41,17.00
2021,06,25,06,42,17.10
2021,06,25,06,43,17.10
2021,06,25,06,44,17.10
2021,06,25,06,45,17.20
2021,06,25,06,46,17.20
2021,06,25,06,47,17.20
2021,06,25,06,48,17.20
2021,06,25,06,49,17.30
2021,06,25,06,50,17.30
2021,06,25,06,51,17.40
2021,06,25,06,52,17.50
2021,06,25,06,53,17.50
2021,06,25,06,54,17.60
2021,06,25,06,55,17.70
2021,06,25,06,56,17.70
2021,06,25,06,57,17.70
2021,06,25,06,58,17.80
2021,06,25,06,59,17.90
2021,06,25,07,00,18.00
2021,06,25,07,01,18.00
2021,06,25,07,02,18.10
2021,06,25,07,03,18.20
2021,06,25,07,04,18.20
2021,06,25,07,05,18.30
2021,06,25,07,06,18.40
2021,06,25,07,07,18.40
2021,06,25,07,08,18.50
2021,06,25,07,09,18.50
2021,06,25,07,10,18.60
2021,06,25,07,11,18.70
2021,06,25,07,12,18.80
2021,06,25,07,13,18.90
2021,06,25,07,14,19.00
2021,06,25,07,15,19.00
2021,06,25,07,16,19.10
2021,06,25,07,17,19.20
2021,06,25,07,18,19.20
2021,06,25,07,19,19.20
2021,06,25,07,20,19.30
2021,06,25,07,21,19.30
2021,06,25,07,22,19.40
2021,06,25,07,23,19.40
2021,06,25,07,24,19.50
2021,06,25,07,25,19.50
2021,06,25,07,26,19.60
2021,06,25,07,27,19.70
2021,06,25,07,28,19.70
2021,06,25,07,29,19.80
2021,06,25,07,30,19.80
2021,06,25,07,31,19.80
2021,06,25,07,32,19.80
2021,06,25,07,33,19.90
2021,06,25,07,34,19.90
2021,06,25,07,35,20.00
2021,06,25,07,36,20.00
2021,06,25,07,37,20.10
2021,06,25,07,38,20.20
2021,06,25,07,39,20.40
2021,06,25,07,40,20.50
2021,06,25,07,41,20.70
2021,06,25,07,42,20.80
2021,06,25,07,43,21.00
2021,06,25,07,44,21.20
2021,06,25,07,45,21.30
2021,06,25,07,46,21.40
2021,06,25,07,47,21.40
2021,06,25,07,48,21.40
2021,06,25,07,49,21.40
2021,06,25,07,50,21.50
2021,06,25,07,51,21.50
2021,06,25,07,52,21.40
2021,06,25,07,53,21.40
2021,06,25,07,54,21.40
2021,06,25,07,55,21.40
2021,06,25,07,56,21.50
2021,06,25,07,57,21.50
2021,06,25,07,58,21.60
2021,06,25,07,59,21.60
2021,06,25,08,00,21.60
2021,06,25,08,01,21.60
2021,06,25,08,02,21.60
2021,06,25,08,03,21.60
2021,06,25,08,04,21.60
2021,06,25,08,05,21.60
2021,06,25,08,06,21.60
2021,06,25,08,07,21.60
2021,06,25,08,08,21.70
2021,06,25,08,09,21.80
2021,06,25,08,10,21.80
2021,06,25,08,11,21.80
2021,06,25,08,12,21.80
2021,06,25,08,13,21.80
2021,06,25,08,14,21.80
2021,06,25,08,15,21.90
2021,06,25,08,16,21.90
2021,06,25,08,17,21.90
2021,06,25,08,18,21.90
2021,06,25,08,19,22.00
2021,06,25,08,20,22.00
2021,06,25,08,21,22.00
2021,06,25,08,22,22.10
2021,06,25,08,23,22.10
2021,06,25,08,24,22.10
2021,06,25,08,25,22.20
2021,06,25,08,26,22.20
2021,06,25,08,27,22.30
2021,06,25,08,28,22.30
2021,06,25,08,29,22.30
2021,06,25,08,30,22.30
2021,06,25,08,31,22.40
2021,06,25,08,32,22.40
2021,06,25,08,33,22.40
2021,06,25,08,34,22.50
2021,06,25,08,35,22.50
2021,06,25,08,36,22.50
2021,06,25,08,37,22.50
2021,06,25,08,38,22.60
2021,06,25,08,39,22.60
2021,06,25,08,40,22.60
2021,06,25,08,41,22.60
2021,06,25,08,42,22.70
2021,06,25,08,43,22.70
2021,06,25,08,44,22.80
2021,06,25,08,45,22.80
2021,06,25,08,46,22.80
2021,06,25,08,47,22.80
2021,06,25,08,48,22.80
2021,06,25,08,49,22.80
2021,06,25,08,50,22.90
2021,06,25,08,51,22.90
2021,06,25,08,52,23.00
2021,06,25,08,53,23.00
2021,06,25,08,54,23.10
2021,06,25,08,55,23.10
2021,06,25,08,56,23.10
2021,06,25,08,57,23.10
2021,06,25,08,58,23.00
2021,06,25,08,59,22.90
2021,06,25,09,00,22.90
2021,06,25,09,01,22.90
2021,06,25,09,02,23.00
2021,06,25,09,03,23.00
2021,06,25,09,04,23.00
2021,06,25,09,05,23.00
2021,06,25,09,06,23.00
2021,06,25,09,07,23.10
2021,06,25,09,08,23.20
2021,06,25,09,09,23.20
2021,06,25,09,10,23.30
2021,06,25,09,11,23.30
2021,06,25,09,12,23.20
2021,06,25,09,13,23.20
2021,06,25,09,14,23.20
2021,06,25,09,15,23.20
2021,06,25,09,16,23.20
2021,06,25,09,17,23.30
2021,06,25,09,18,23.30
2021,06,25,09,19,23.30
2021,06,25,09,20,23.30
2021,06,25,09,21,23.30
2021,06,25,09,22,23.30
2021,06,25,09,23,23.30
2021,06,25,09,24,23.30
2021,06,25,09,25,23.30
2021,06,25,09,26,23.30
2021,06,25,09,27,23.30
2021,06,25,09,28,23.30
2021,06,25,09,29,23.30
2021,06,25,09,30,23.40
2021,06,25,09,31,23.40
2021,06,25,09,32,23.40
2021,06,25,09,33,23.40
2021,06,25,09,34,23.40
2021,06,25,09,35,23.50
2021,06,25,09,36,23.50
2021,06,25,09,37,23.60
2021,06,25,09,38,23.60
2021,06,25,09,39,23.60
2021,06,25,09,40,23.70
2021,06,25,09,41,23.70
2021,06,25,09,42,23.80
2021,06,25,09,43,23.80
2021,06,25,09,44,23.80
2021,06,25,09,45,23.90
2021,06,25,09,46,23.90
2021,06,25,09,47,24.00
2021,06,25,09,48,24.00
2021,06,25,09,49,24.10
2021,06,25,09,50,24.20
2021,06,25,09,51,24.20
2021,06,25,09,52,24.20
2021,06,25,09,53,24.20
2021,06,25,09,54,24.20
2021,06,25,09,55,24.20
2021,06,25,09,56,24.20
2021,06,25,09,57,24.10
2021,06,25,09,58,24.10
2021,06,25,09,59,24.10
2021,06,25,10,00,24.10
2021,06,25,10,01,24.20
2021,06,25,10,02,24.30
2021,06,25,10,03,24.30
2021,06,25,10,04,24.30
2021,06,25,10,05,24.30
2021,06,25,10,06,24.30
2021,06,25,10,07,24.30
2021,06,25,10,08,24.40
2021,06,25,10,09,24.50
2021,06,25,10,10,24.60
2021,06,25,10,11,24.70
2021,06,25,10,12,24.80
2021,06,25,10,13,24.80
2021,06,25,10,14,24.80
2021,06,25,10,15,24.80
2021,06,25,10,16,24.70
2021,06,25,10,17,24.70
2021,06,25,10,18,24.70
2021,06,25,10,19,24.70
2021,06,25,10,20,24.70
2021,06,25,10,21,24.70
2021,06,25,10,22,24.70
2021,06,25,10,23,24.70
2021,06,25,10,24,24.80
2021,06,25,10,25,24.80
2021,06,25,10,26,24.90
2021,06,25,10,27,24.90
2021,06,25,10,28,25.00
2021,06,25,10,29,25.10
2021,06,25,10,30,25.20
2021,06,25,10,31,25.20
2021,06,25,10,32,25.20
2021,06,25,10,33,25.30
2021,06,25,10,34,25.30
2021,06,25,10,35,25.30
2021,06,25,10,36,25.30
2021,06,25,10,37,25.40
2021,06,25,10,38,25.50
2021,06,25,10,39,25.50
2021,06,25,10,40,25.50
2021,06,25,10,41,25.40
2021,06,25,10,42,25.40
2021,06,25,10,43,25.40
2021,06,25,10,44,25.40
2021,06,25,10,45,25.40
2021,06,25,10,46,25.50
2021,06,25,10,47,25.50
2021,06,25,10,48,25.60
2021,06,25,10,49,25.70
2021,06,25,10,50,25.80
2021,06,25,10,51,25.90
2021,06,25,10,52,25.90
2021,06,25,10,53,26.00
2021,06,25,10,54,26.10
2021,06,25,10,55,26.20
2021,06,25,10,56,26.30
2021,06,25,10,57,26.30
2021,06,25,10,58,26.20
2021,06,25,10,59,26.20
2021,06,25,11,00,26.20
2021,06,25,11,01,26.30
2021,06,25,11,02,26.20
2021,06,25,11,03,26.20
2021,06,25,11,04,26.10
2021,06,25,11,05,26.10
2021,06,25,11,06,26.10
2021,06,25,11,07,26.10
2021,06,25,11,08,26.10
2021,06,25,11,09,26.10
2021,06,25,11,10,26.20
2021,06,25,11,11,26.20
2021,06,25,11,12,26.20
2021,06,25,11,13,26.20
2021,06,25,11,14,26.30
2021,06,25,11,15,26.30
2021,06,25,11,16,26.40
2021,06,25,11,17,26.60
2021,06,25,11,18,26.90
2021,06,25,11,19,27.10
2021,06,25,11,20,27.20
2021,06,25,11,21,27.40
2021,06,25,11,22,27.60
2021,06,25,11,23,27.70
2021,06,25,11,24,27.80
2021,06,25,11,25,28.00
2021,06,25,11,26,28.20
2021,06,25,11,27,28.40
2021,06,25,11,28,28.60
2021,06,25,11,29,28.70
2021,06,25,11,30,28.80
2021,06,25,11,31,28.90
2021,06,25,11,32,28.90
2021,06,25,11,33,29.00
2021,06,25,11,34,29.00
2021,06,25,11,35,28.90
2021,06,25,11,36,28.80
2021,06,25,11,37,28.80
2021,06,25,11,38,28.80
2021,06,25,11,39,28.80
2021,06,25,11,40,28.80
2021,06,25,11,41,28.80
2021,06,25,11,42,28.90
2021,06,25,11,43,29.10
2021,06,25,11,44,29.20
2021,06,25,11,45,29.20
2021,06,25,11,46,29.30
2021,06,25,11,47,29.40
2021,06,25,11,48,29.30
2021,06,25,11,49,29.30
2021,06,25,11,50,29.30
2021,06,25,11,51,29.30
2021,06,25,11,52,29.40
2021,06,25,11,53,29.50
2021,06,25,11,54,29.20
2021,06,25,11,55,28.60
2021,06,25,11,56,28.20
2021,06,25,11,57,27.90
2021,06,25,11,58,27.60
2021,06,25,11,59,27.30
2021,06,25,12,00,27.10
2021,06,25,12,01,27.00
2021,06,25,12,02,27.00
2021,06,25,12,03,27.00
2021,06,25,12,04,27.20
2021,06,25,12,05,27.30
2021,06,25,12,06,27.50
2021,06,25,12,07,27.60
2021,06,25,12,08,27.70
2021,06,25,12,09,27.80
2021,06,25,12,10,27.70
2021,06,25,12,11,27.70
2021,06,25,12,12,27.50
2021,06,25,12,13,27.30
2021,06,25,12,14,27.20
2021,06,25,12,15,27.20
2021,06,25,12,16,27.20
2021,06,25,12,17,27.10
2021,06,25,12,18,27.00
2021,06,25,12,19,26.90
2021,06,25,12,20,26.90
2021,06,25,12,21,26.90
2021,06,25,12,22,26.90
2021,06,25,12,23,26.90
2021,06,25,12,24,27.00
2021,06,25,12,25,27.10
2021,06,25,12,26,27.10
2021,06,25,12,27,27.10
2021,06,25,12,28,27.20
2021,06,25,12,29,27.20
2021,06,25,12,30,27.30
2021,06,25,12,31,27.40
2021,06,25,12,32,27.40
2021,06,25,12,33,27.40
2021,06,25,12,34,27.30
2021,06,25,12,35,27.30
2021,06,25,12,36,27.40
2021,06,25,12,37,27.50
2021,06,25,12,38,27.40
2021,06,25,12,39,27.40
2021,06,25,12,40,27.40
2021,06,25,12,41,27.40
2021,06,25,12,42,27.50
2021,06,25,12,43,27.50
2021,06,25,12,44,27.50
2021,06,25,12,45,27.50
2021,06,25,12,46,27.60
2021,06,25,12,47,27.70
2021,06,25,12,48,27.70
2021,06,25,12,49,27.70
2021,06,25,12,50,27.70
2021,06,25,12,51,27.70
2021,06,25,12,52,27.70
2021,06,25,12,53,27.60
2021,06,25,12,54,27.60
2021,06,25,12,55,27.60
2021,06,25,12,56,27.70
2021,06,25,12,57,27.70
2021,06,25,12,58,27.80
2021,06,25,12,59,27.90
2021,06,25,13,00,27.90
2021,06,25,13,01,28.00
2021,06,25,13,02,28.10
2021,06,25,13,03,28.10
2021,06,25,13,04,28.20
2021,06,25,13,05,28.30
2021,06,25,13,06,28.30
2021,06,25,13,07,28.20
2021,06,25,13,08,28.20
2021,06,25,13,09,28.10
2021,06,25,13,10,28.10
2021,06,25,13,11,28.10
2021,06,25,13,12,28.10
2021,06,25,13,13,28.00
2021,06,25,13,14,27.90
2021,06,25,13,15,27.90
2021,06,25,13,16,27.90
2021,06,25,13,17,27.90
2021,06,25,13,18,28.00
2021,06,25,13,19,28.10
2021,06,25,13,20,28.20
2021,06,25,13,21,28.30
2021,06,25,13,22,28.40
2021,06,25,13,23,28.40
2021,06,25,13,24,28.30
2021,06,25,13,25,28.30
2021,06,25,13,26,28.30
2021,06,25,13,27,28.40
2021,06,25,13,28,28.50
2021,06,25,13,29,28.60
2021,06,25,13,30,28.90
2021,06,25,13,31,29.10
2021,06,25,13,32,29.40
2021,06,25,13,33,29.60
2021,06,25,13,34,29.80
2021,06,25,13,35,29.80
2021,06,25,13,36,29.70
2021,06,25,13,37,29.50
2021,06,25,13,38,29.40
2021,06,25,13,39,29.30
2021,06,25,13,40,29.40
2021,06,25,13,41,29.30
2021,06,25,13,42,29.20
2021,06,25,13,43,29.10
2021,06,25,13,44,29.10
2021,06,25,13,45,29.20
2021,06,25,13,46,29.40
2021,06,25,13,47,29.50
2021,06,25,13,48,29.60
2021,06,25,13,49,29.70
2021,06,25,13,50,29.70
2021,06,25,13,51,29.70
2021,06,25,13,52,29.80
2021,06,25,13,53,29.90
2021,06,25,13,54,30.00
2021,06,25,13,55,30.10
2021,06,25,13,56,30.30
2021,06,25,13,57,30.40
2021,06,25,13,58,30.60
2021,06,25,13,59,30.90
2021,06,25,14,00,31.20
2021,06,25,14,01,31.40
2021,06,25,14,02,31.50
2021,06,25,14,03,31.50
2021,06,25,14,04,31.40
2021,06,25,14,05,31.30
2021,06,25,14,06,31.10
2021,06,25,14,07,31.00
2021,06,25,14,08,31.00
2021,06,25,14,09,31.10
2021,06,25,14,10,31.00
2021,06,25,14,11,30.90
2021,06,25,14,12,30.90
2021,06,25,14,13,31.00
2021,06,25,14,14,31.10
2021,06,25,14,15,31.30
2021,06,25,14,16,31.40
2021,06,25,14,17,31.20
2021,06,25,14,18,31.00
2021,06,25,14,19,30.70
2021,06,25,14,20,30.50
2021,06,25,14,21,30.40
2021,06,25,14,22,30.20
2021,06,25,14,23,30.10
2021,06,25,14,24,30.00
2021,06,25,14,25,29.90
2021,06,25,14,26,29.60
2021,06,25,14,27,29.40
2021,06,25,14,28,29.30
2021,06,25,14,29,29.30
2021,06,25,14,30,29.30
2021,06,25,14,31,29.20
2021,06,25,14,32,29.00
2021,06,25,14,33,28.80
2021,06,25,14,34,28.70
2021,06,25,14,35,28.60
2021,06,25,14,36,28.50
2021,06,25,14,37,28.60
2021,06,25,14,38,28.70
2021,06,25,14,39,28.70
2021,06,25,14,40,28.70
2021,06,25,14,41,28.70
2021,06,25,14,42,28.60
2021,06,25,14,43,28.50
2021,06,25,14,44,28.30
2021,06,25,14,45,28.30
2021,06,25,14,46,28.30
2021,06,25,14,47,28.30
2021,06,25,14,48,28.40
2021,06,25,14,49,28.40
2021,06,25,14,50,28.40
2021,06,25,14,51,28.40
2021,06,25,14,52,28.50
2021,06,25,14,53,28.60
2021,06,25,14,54,28.80
2021,06,25,14,55,28.90
2021,06,25,14,56,28.90
2021,06,25,14,57,29.00
2021,06,25,14,58,29.10
2021,06,25,14,59,29.20
2021,06,25,15,00,29.20
2021,06,25,15,01,29.10
2021,06,25,15,02,29.00
2021,06,25,15,03,29.00
2021,06,25,15,04,29.00
2021,06,25,15,05,28.90
2021,06,25,15,06,28.90
2021,06,25,15,07,28.80
2021,06,25,15,08,28.90
2021,06,25,15,09,29.00
2021,06,25,15,10,29.10
2021,06,25,15,11,29.10
2021,06,25,15,12,29.20
2021,06,25,15,13,29.20
2021,06,25,15,14,29.30
2021,06,25,15,15,29.30
2021,06,25,15,16,29.50
2021,06,25,15,17,29.60
2021,06,25,15,18,29.60
2021,06,25,15,19,29.70
2021,06,25,15,20,29.80
2021,06,25,15,21,29.90
2021,06,25,15,22,30.00
2021,06,25,15,23,30.10
2021,06,25,15,24,30.10
2021,06,25,15,25,30.10
2021,06,25,15,26,30.20
2021,06,25,15,27,30.30
2021,06,25,15,28,30.40
2021,06,25,15,29,30.50
2021,06,25,15,30,30.70
2021,06,25,15,31,30.80
2021,06,25,15,32,30.90
2021,06,25,15,33,31.10
2021,06,25,15,34,31.20
2021,06,25,15,35,31.20
2021,06,25,15,36,31.10
2021,06,25,15,37,30.90
2021,06,25,15,38,30.70
2021,06,25,15,39,30.60
2021,06,25,15,40,30.50
2021,06,25,15,41,30.40
2021,06,25,15,42,30.40
2021,06,25,15,43,30.40
2021,06,25,15,44,30.40
2021,06,25,15,45,30.50
2021,06,25,15,46,30.60
2021,06,25,15,47,30.70
2021,06,25,15,48,30.80
2021,06,25,15,49,30.90
2021,06,25,15,50,30.90
2021,06,25,15,51,31.00
2021,06,25,15,52,31.00
2021,06,25,15,53,31.10
2021,06,25,15,54,31.10
2021,06,25,15,55,31.10
2021,06,25,15,56,31.20
2021,06,25,15,57,31.10
2021,06,25,15,58,31.10
2021,06,25,15,59,31.00
2021,06,25,16,00,31.00
2021,06,25,16,01,30.90
2021,06,25,16,02,30.90
2021,06,25,16,03,30.90
2021,06,25,16,04,30.90
2021,06,25,16,05,30.90
2021,06,25,16,06,30.80
2021,06,25,16,07,30.80
2021,06,25,16,08,30.70
2021,06,25,16,09,30.80
2021,06,25,16,10,30.80
2021,06,25,16,11,31.00
2021,06,25,16,12,31.00
2021,06,25,16,13,31.10
2021,06,25,16,14,31.10
2021,06,25,16,15,31.10
2021,06,25,16,16,31.20
2021,06,25,16,17,31.30
2021,06,25,16,18,31.20
2021,06,25,16,19,31.20
2021,06,25,16,20,31.20
2021,06,25,16,21,31.20
2021,06,25,16,22,31.30
2021,06,25,16,23,31.30
2021,06,25,16,24,31.40
2021,06,25,16,25,31.50
2021,06,25,16,26,31.70
2021,06,25,16,27,31.70
2021,06,25,16,28,31.70
2021,06,25,16,29,31.60
2021,06,25,16,30,31.60
2021,06,25,16,31,31.50
2021,06,25,16,32,31.60
2021,06,25,16,33,31.70
2021,06,25,16,34,31.80
2021,06,25,16,35,31.80
2021,06,25,16,36,31.80
2021,06,25,16,37,31.90
2021,06,25,16,38,31.90
2021,06,25,16,39,31.90
2021,06,25,16,40,31.90
2021,06,25,16,41,31.90
2021,06,25,16,42,31.90
2021,06,25,16,43,31.80
2021,06,25,16,44,31.80
2021,06,25,16,45,31.80
2021,06,25,16,46,31.80
2021,06,25,16,47,31.90
2021,06,25,16,48,31.90
2021,06,25,16,49,31.90
2021,06,25,16,50,32.00
2021,06,25,16,51,32.00
2021,06,25,16,52,32.00
2021,06,25,16,53,32.00
2021,06,25,16,54,32.10
2021,06,25,16,55,32.20
2021,06,25,16,56,32.30
2021,06,25,16,57,32.40
2021,06,25,16,58,32.50
2021,06,25,16,59,32.70
2021,06,25,17,00,32.60
2021,06,25,17,01,32.50
2021,06,25,17,02,32.20
2021,06,25,17,03,32.10
2021,06,25,17,04,32.00
2021,06,25,17,05,31.90
2021,06,25,17,06,31.90
2021,06,25,17,07,31.90
2021,06,25,17,08,31.80
2021,06,25,17,09,31.80
2021,06,25,17,10,31.80
2021,06,25,17,11,31.80
2021,06,25,17,12,31.80
2021,06,25,17,13,31.70
2021,06,25,17,14,31.70
2021,06,25,17,15,31.70
2021,06,25,17,16,31.80
2021,06,25,17,17,31.90
2021,06,25,17,18,31.90
2021,06,25,17,19,32.00